Terug naar catalogus

NIMBUS 2 DEB

ActiefLEO
NORAD 28209·DEBRIS·🇺🇸 United States

Gelanceerd May 15, 1966 vanaf Vandenberg Space Force Base

Loading…

Volgende Passages (komende 24 uur)

TLE

VersSource: Space-Track

Epoch: Sep 13, 2026, 06:35 UTC

1 28209U 66040X   26256.27449330  .00001612  00000-0  20249-2 0  9999
2 28209 100.3136 254.7353 0043910  72.5733 303.1417 13.65443168644958

Volg NIMBUS 2 DEB in realtime met AllMySat

Download on the App Store